Location: Wyoming Infrared Observatory
(41.0971°N, 105.9765°W)
Time: 04:47:13
(UTC-07:00)

Daily predictions for brighter satellites

Satellite Brightness Start Highest point End
(mag) Time Altitude Azimuth Time Altitude Azimuth Time Altitude Azimuth
ATLAS 5 CENTAUR R/B 4.5 03:09:45 17° NE 03:09:45 17° NE 03:10:55 10° NE
Cosmos 1943 Rocket 4.0 03:15:06 26° NE 03:15:06 26° NE 03:17:43 10° NE
ADEOS II 3.6 03:24:52 10° NNE 03:28:37 32° ENE 03:28:37 32° ENE
CZ-4B R/B 4.4 03:27:26 10° NNE 03:32:07 41° E 03:32:07 41° E
Lacrosse 5 3.2 03:55:46 35° NNE 03:55:46 35° NNE 03:58:46 10° NE
Cosmos 1656 Rocket 4.0 04:11:36 53° SSE 04:12:41 63° ESE 04:18:18 10° NNE
CZ-4C R/B 2.2 04:12:59 66° SE 04:13:17 68° ESE 04:19:08 10° NE
Cosmos 1954 Rocket 4.3 04:10:52 22° N 04:14:16 67° ENE 04:19:34 10° SSE
PAYLOAD B 4.3 04:12:14 10° N 04:17:06 65° NNW 04:17:06 65° NNW
IRS-1C Rocket 4.5 04:13:14 10° N 04:17:18 52° N 04:17:18 52° N
GEOS 3 Rocket 3.7 04:14:18 10° SE 04:19:22 72° NE 04:20:41 49° NNW
Meteor 1-26 Rocket 4.3 04:18:35 39° S 04:20:44 75° E 04:26:20 10° NNE
Cosmos 2369 Rocket 3.7 04:23:10 22° NNW 04:23:10 22° NNW 04:25:57 10° N
CZ-4B DEB 4.1 04:16:27 10° N 04:21:48 74° NW 04:21:48 74° NW
Cosmos 2219 3.9 04:16:43 10° NNW 04:22:17 53° ENE 04:27:46 10° SE
Okean O Rocket 3.7 04:18:16 10° N 04:19:19 17° N 04:19:19 17° N
Meteor 1-31 Rocket 3.9 04:21:17 10° NNE 04:24:59 42° E 04:25:38 38° SE
USA 234 3.3 04:23:09 10° NE 04:29:41 72° SE 04:32:32 36° SSW
Meteor 2-10 Rocket 3.2 04:35:43 60° SSW 04:36:37 81° W 04:41:44 10° N
Okean 1-7 3.1 04:37:17 47° SSE 04:38:25 74° E 04:42:40 10° NNE
Cosmos 2221 Rocket 3.5 04:39:18 59° S 04:40:10 88° W 04:44:45 10° N
ERS-2 3.9 04:37:07 10° N 04:38:43 24° N 04:38:43 24° N
Cosmos 1023 Rocket 4.4 04:36:03 10° NNW 04:41:20 88° ENE 04:46:36 10° SSE
ATLAS 3B R/B 3.5 04:40:46 10° SSW 04:48:06 54° ESE 04:55:12 10° NE
Cosmos 1452 Rocket 3.6 04:48:20 51° W 04:49:02 55° WNW 04:54:15 10° N
Thor Agena Rocket 3.6 04:44:55 10° SSE 04:50:08 82° ENE 04:55:18 10° NNW
ATLAS 5 CENTAUR R/B 3.3 04:51:18 23° NW 04:51:18 23° NW 04:55:09 10° NNE
Cosmos 1943 Rocket 3.1 04:56:39 28° NW 04:56:39 28° NW 05:01:07 10° N
Cosmos 1741 Rocket 4.0 04:56:18 10° NNW 05:01:34 81° ENE 05:06:50 10° SSE
Cosmos 1782 Rocket 3.7 04:57:51 10° NNW 05:02:11 51° W 05:06:28 10° SSW
Feng Yun 1-1 Rocket 4.3 04:58:56 10° N 05:04:50 75° WNW 05:10:44 10° SSW
ADEOS II 2.9 05:04:47 10° N 05:09:16 29° WNW 05:09:35 29° WNW
SJ-6F 4.3 05:08:26 10° N 05:12:34 75° WNW 05:16:40 10° SSW
Cosmos 1140 Rocket 3.7 05:07:56 10° NNW 05:12:57 47° WSW 05:17:57 10° S
CZ-4B R/B 4.1 05:08:24 10° N 05:13:06 28° WNW 05:14:01 27° W
Radarsat Rocket 4.5 05:07:32 10° NNE 05:14:42 75° ESE 05:20:58 10° S
Cosmos 614 Rocket 3.9 05:09:54 10° NNW 05:14:56 60° WSW 05:19:58 10° S
SKYMED 2 3.7 05:11:05 10° SSE 05:15:25 77° ENE 05:19:46 10° N
Cosmos 1386 Rocket 4.5 05:11:20 10° N 05:17:26 86° E 05:23:36 10° S
Cosmos 1745 Rocket 3.9 05:11:28 10° NNW 05:17:36 72° W 05:23:40 10° S
Tiangong 1 1.1 05:19:40 45° NW 05:20:15 59° N 05:23:10 10° E
Okean-O 3.0 05:18:16 10° N 05:22:26 40° WNW 05:25:43 15° SW
Lacrosse 5 rocket 2.2 05:20:02 12° NNW 05:23:04 40° NE 05:26:28 10° ESE
Meteor 1-20 Rocket 4.2 05:19:46 10° NNW 05:25:22 60° W 05:30:50 10° S
Cosmos 1674 Rocket 4.2 05:21:22 10° S 05:25:40 58° E 05:30:03 10° NNE
CZ-4B R/B 4.5 05:23:21 10° N 05:27:03 35° WNW 05:30:07 14° SW
Meteor 1-27 Rocket 4.3 05:24:08 10° S 05:29:50 65° E 05:35:41 10° NNE
USA 81 4.0 05:24:52 10° SSW 05:30:06 70° W 05:35:24 10° N
Cosmos 1606 2.6 05:27:17 10° SSW 05:31:08 68° W 05:35:02 10° N
Okean 2 Rocket 3.8 05:30:00 10° NNW 05:33:51 31° W 05:37:43 10° SSW
Cosmos 1602 4.3 05:30:41 10° N 05:34:37 61° E 05:38:31 10° SSE
Lacrosse 5 3.5 05:34:59 14° WNW 05:37:32 19° NNW 05:41:12 10° NNE
Cosmos 1782 3.2 05:36:58 10° SSW 05:40:41 38° WNW 05:44:27 10° N
Delta 2 Rocket 4.5 05:37:47 16° WSW 05:41:21 45° S 05:46:25 10° ESE
Cosmos 2369 4.1 05:36:57 10° SSW 05:42:32 68° ESE 05:48:09 10° NNE
Cosmos 1607 3.9 05:40:32 10° SW 05:46:36 65° NW 05:52:46 10° NNE
Okean 1 Rocket 3.7 05:43:08 10° N 05:47:30 59° E 05:51:48 10° SSE
Cosmos 2297 Rocket 2.7 05:42:51 10° NNW 05:48:29 64° ENE 05:54:04 10° SE
Cosmos 2151 Rocket 4.0 05:49:35 10° NNW 05:53:49 41° W 05:58:00 10° SSW
Cosmos 2278 3.7 05:52:53 10° SSW 05:58:33 86° WNW 06:04:14 10° NNE
Ariane Rocket 3.0 05:53:34 10° NNE 05:58:41 81° WNW 06:03:44 10° SSW
Meteor 2-6 Rocket 4.4 05:54:18 10° SSW 05:59:27 46° WNW 06:04:41 10° N
Cosmos 1346 Rocket 4.1 05:58:02 10° SSE 06:01:55 46° E 06:05:48 10° NNE
CZ-4C R/B 3.5 05:58:12 11° W 06:02:26 24° NW 06:07:20 10° NNE
COSMO-SKYMED 1 3.3 05:59:45 10° SSW 06:03:35 30° W 06:07:27 10° NW
Gblst 52 Del rocket 4.4 05:58:04 10° SW 06:03:50 85° NW 06:10:23 10° NE
Cosmos 1633 2.8 06:00:40 10° NNW 06:04:09 46° W 06:07:36 10° SSW
Cosmos 2219 4.3 06:01:49 10° NW 06:05:59 21° W 06:10:08 10° SSW
Cosmos 2227 Rocket 2.2 06:03:17 10° NNW 06:08:56 68° WSW 06:14:33 10° SSE
USA 234 3.9 06:06:25 10° NE 06:12:24 40° NNW 06:18:23 10° W
Cosmos 1656 3.9 06:10:28 10° SSW 06:16:10 85° ESE 06:21:54 10° NNE
NOSS 3-2 (A) 4.2 06:11:59 10° SSW 06:17:50 60° ESE 06:24:14 10° NE
USA 238 DEB 3.8 06:11:35 10° SW 06:18:33 69° NW 06:25:35 10° NNE
USA 238 3.8 06:11:39 10° SW 06:18:38 70° NW 06:25:41 10° NNE
